Location: Camaret
(48.2753°N, 4.5961°W)
Time: 23:46:03
(UTC+00:00)

Cosmos 2369 - Pass Details

Date: 29 October 2020
Orbit: 840 x 854 km, 71.0° (Epoch: 26 November)

Event Time Altitude Azimuth Distance (km) Brightness Sun altitude
Rises 18:26:39 0° 185° (S) 3,409 7.0 -14.3°
Reaches altitude 10° 18:29:11 10° 179° (S) 2,476 6.2 -14.7°
Maximum altitude 18:34:32 44° 109° (ESE) 1,166 4.0 -15.6°
Enters shadow 18:39:13 14° 41° (NE) 2,241 5.5 -16.4°
